Wetbulb
31.13 30.99 30.02 29.25 29.39 29.17 28.13 27.00 26.60 26.01 25.49 25.25 25.03 24.34 23.94 23.63 23.50 22.66 22.33 22.38 22.06 21.83 21.65 21.80 21.58 21.57 20.28 19.71 19.70 19.92 19.55 18.57 15.92 18.20 19.18 20.28 19.69 19.73 20.90 21.44 22.30 21.60 22.64
30.80 30.08 29.71 29.26 28.41 27.60 26.92 26.06 25.72 25.65 25.28 25.15 24.57 24.20 23.70 23.34 23.00 22.38 22.02 22.17 21.49 21.66 21.75 21.52 21.07 23.20 19.72 19.22 18.62 18.16 17.83 17.72 16.57 15.24 18.21 18.53 18.63 19.78 19.95 19.42 21.85 23.61 22.35
29.13 28.89 27.83 27.63 27.48 27.10 26.18 25.56 25.65 25.08 24.78 24.61 24.03 23.30 23.09 22.93 22.56 22.47 22.62 22.32 22.09 22.10 21.90 21.19 20.96 20.59 19.53 18.94 18.03 17.26 17.33 19.45 17.51 16.82 16.22 18.92 19.21 20.25 19.73 20.75 21.31 21.84 23.83
29.11 28.21 27.59 27.22 27.77 27.18 26.43 25.76 25.68 25.29 24.40 23.82 23.19 23.23 22.99 22.71 22.92 22.81 22.52 21.85 21.85 22.11 22.41 22.09 21.31 20.18 19.52 18.82 18.36 18.09 19.14 18.03 17.90 16.98 16.83 17.44 18.60 20.33 20.60 19.14 18.75 20.94 20.52
28.92 27.91 27.69 27.71 27.46 26.51 26.23 25.64 25.06 24.83 24.96 24.11 23.19 22.39 23.09 22.47 23.27 22.27 22.21 20.92 20.72 20.46 21.05 21.81 21.36 21.16 23.56 23.02 20.46 19.18 18.76 17.00 17.29 16.64 16.98 17.44 17.91 18.65 17.35 18.78 17.40 18.61 20.00
29.19 28.05 28.03 27.53 26.70 26.53 26.63 25.44 25.12 24.43 23.20 22.98 22.86 21.85 20.89 23.10 27.11 28.01 23.40 21.06 21.44 20.81 19.99 20.27 20.54 20.31 22.04 25.41 26.02 26.21 24.34 15.67 3.33 11.75 17.85 18.42 17.72 17.72 17.76 17.52 17.70 14.85 12.51
28.46 28.24 27.81 28.02 27.17 27.16 26.65 25.70 24.74 23.83 23.35 22.53 21.69 21.94 20.71 20.47 28.38 29.20 28.69 21.59 20.98 20.30 20.10 20.37 20.46 21.18 19.78 19.22 21.99 24.19 24.23 24.74 25.28 22.86 20.11 18.18 17.18 17.76 19.45 16.73 15.70 14.88 13.78
28.62 28.52 28.26 28.03 27.47 26.74 25.97 25.40 24.48 23.79 23.00 22.63 21.55 20.65 20.19 20.46 27.96 29.26 29.00 22.31 20.91 20.46 19.87 19.60 19.39 19.32 19.33 19.00 18.41 18.04 18.67 19.43 20.67 22.28 21.42 19.99 19.77 21.50 19.28 17.51 15.71 13.20 13.49
28.37 28.45 28.51 28.44 27.91 26.22 25.83 25.19 24.90 23.86 22.18 21.78 21.94 19.66 18.82 18.13 27.55 28.58 27.75 21.41 21.19 20.02 20.09 19.57 19.09 18.76 21.42 24.17 20.90 16.53 18.51 20.13 24.02 25.34 24.92 24.12 23.38 22.84 20.10 15.51 8.35 8.13 7.10
28.93 28.98 29.19 29.27 28.91 26.92 27.19 26.47 25.63 24.81 23.59 21.28 20.67 18.52 17.87 16.44 25.19 28.32 27.72 21.14 15.86 18.71 18.64 19.62 22.23 21.08 22.86 24.52 21.44 19.02 15.34 17.09 17.81 11.62 13.18 14.58 16.18 15.00 17.82 15.13 12.63 7.11 7.53
30.83 30.77 28.69 28.57 28.81 28.49 27.83 25.37 21.75 21.70 19.58 17.43 17.96 16.88 15.78 15.72 16.05 26.80 28.21 21.83 19.45 15.80 16.38 16.67 18.26 22.66 24.41 25.29 26.09 21.88 19.89 19.57 11.87 4.59 5.77 9.19 11.03 11.47 12.49 14.28 14.34 11.93 8.50
27.17 26.82 26.76 27.12 27.93 27.24 25.54 18.76 18.39 18.50 17.57 14.89 13.62 13.08 15.01 14.57 18.20 23.19 26.50 27.47 25.32 15.86 15.43 17.61 17.92 22.86 24.46 25.56 25.30 25.92 26.61 23.64 2.15 -1.36 0.15 6.00 8.06 9.39 11.57 12.52 12.93 13.06 13.54
25.07 24.95 23.75 23.06 22.84 22.21 20.74 17.18 14.33 15.24 17.56 16.84 16.34 15.98 11.79 13.92 14.78 23.10 24.74 25.66 26.26 23.39 22.24 20.76 23.39 24.77 25.55 25.47 26.89 25.62 20.11 10.65 2.69 -2.45 0.90 6.43 9.22 10.88 11.87 10.46 11.19 11.54 11.44
21.76 19.78 18.19 19.89 16.45 15.73 18.26 17.83 17.72 16.76 16.82 15.57 13.46 13.61 7.59 10.48 12.32 13.16 14.27 15.66 21.30 22.09 22.64 17.97 20.54 24.01 24.39 22.67 16.63 19.05 14.83 12.02 9.76 5.64 6.34 8.82 9.76 8.45 6.93 8.34 6.57 6.82 5.45
16.90 15.49 15.42 15.52 15.68 13.24 12.65 13.03 14.37 9.25 14.68 7.31 8.41 8.63 6.53 6.10 9.91 16.74 14.25 10.23 9.59 13.81 14.31 2.21 3.46 9.52 11.89 12.53 8.88 9.54 10.99 10.00 8.20 6.18 4.42 4.74 6.04 5.84 5.46 6.33 5.23 3.95 2.36
16.05 15.10 14.71 15.14 11.03 11.76 11.12 7.68 19.82 19.16 22.11 22.85 21.37 13.14 6.64 17.46 20.92 22.30 23.32 24.14 24.87 25.38 21.40 15.58 13.38 11.84 12.09 13.15 13.04 11.10 9.29 8.46 8.33 6.86 3.39 4.07 3.71 2.70 2.38 2.72 2.88 1.58 0.93
13.33 11.96 10.54 11.29 10.64 9.36 6.25 9.92 8.61 11.24 23.12 23.21 24.13 24.91 24.25 20.33 23.86 24.83 24.34 24.60 24.54 23.96 17.96 14.94 14.61 11.60 10.64 11.96 11.49 9.20 7.66 7.65 7.35 5.14 3.93 2.63 2.27 -0.42 -1.39 -1.64 -0.17 0.76 -0.48
4.90 10.46 10.69 8.47 7.84 6.78 6.68 5.50 5.56 6.58 6.99 3.28 13.61 16.66 18.11 18.41 18.67 19.53 20.56 18.28 0.56 1.25 -2.27 -5.77 -1.51 4.14 7.12 9.31 9.29 7.70 6.48 4.13 3.34 2.72 0.91 -1.86 -4.01 -9.31 -5.27 -4.34 -2.97 -3.02 -1.58
6.19 5.02 5.33 5.29 5.32 6.08 5.11 4.11 2.37 0.60 -2.47 -3.57 -1.47 7.74 5.80 12.35 12.84 13.60 13.99 -8.09 -11.58 -13.20 -12.57 -11.11 -8.58 -4.25 0.74 1.42 2.91 2.22 -0.17 -0.96 -1.03 -1.36 -5.02 -6.96 -7.09 -16.51 -12.18 -6.57 -3.38 -1.93 -1.25
2.20 5.19 4.49 3.91 2.88 2.83 3.30 1.79 -0.02 -0.97 -2.84 -0.57 -2.03 -2.69 -4.47 -5.31 -9.03 -11.51 -12.26 -14.24 -17.07 -16.93 -15.60 -15.08 -10.94 -7.40 -2.78 -3.55 -4.24 -4.30 -4.40 -4.61 -2.13 -2.63 -5.47 -7.63 -9.24 -16.51 -9.17 -7.98 -5.31 -4.14 -4.00
1.01 0.49 1.39 -0.70 -0.72 -1.14 -2.45 -1.66 -1.83 -4.26 -5.49 -8.96 -5.89 -2.39 7.77 -5.46 -7.39 -11.05 -13.63 -15.69 -17.40 -14.21 -11.12 -12.00 -11.29 -9.22 -5.40 -4.30 -5.27 -5.14 -4.46 -2.68 -1.17 -2.82 -6.64 -10.00 -12.79 -21.55 -16.44 -6.50 -5.49 -5.64 -4.32
-3.32 -5.33 -5.29 -5.54 -4.91 -4.14 -6.73 -3.94 -6.00 -7.15 -10.37 -9.42 -7.78 -4.96 6.46 -4.94 -11.90 -14.59 -16.73 -17.61 -14.48 -13.52 -11.23 -8.88 -9.84 -11.74 -11.27 -8.81 -5.24 -2.95 -3.33 -3.39 -2.40 -3.75 -10.56 -10.12 -19.57 -22.24 -19.50 -12.40 -9.99 -7.09 -5.99
-5.17 -6.03 -7.14 -10.12 -6.99 -5.31 -5.79 -10.19 -13.54 -13.47 -11.34 -8.48 -4.79 -5.00 -9.10 -11.84 -16.21 -16.85 -16.59 -15.94 -15.21 -13.10 -10.99 -15.80 -10.67 -9.11 -11.40 -10.69 -5.76 -1.73 -2.77 -2.87 -2.36 -6.28 -9.65 -14.61 -23.35 -21.55 -23.11 -17.29 -12.53 -9.39 -7.90
-6.31 -4.67 -2.78 -4.38 -4.26 -5.31 -9.02 -14.01 -9.04 -7.84 -9.27 -12.07 -15.72 -16.75 -12.68 -14.25 -16.44 -15.82 -14.79 -13.79 -13.81 -13.25 -13.35 -13.34 -11.06 -9.89 -11.31 -12.16 -11.60 -8.91 -4.25 -4.87 -7.37 -9.39 -13.10 -18.96 -17.53 -19.56 -21.48 -19.14 -13.61 -9.32 -5.94
-7.15 -6.73 -7.04 -7.89 -10.92 -11.63 -11.66 -13.80 -13.10 -15.14 -15.40 -14.59 -13.89 -14.12 -15.46 -17.18 -15.87 -15.95 -14.86 -13.92 -13.00 -12.21 -11.19 -11.08 -11.46 -11.20 -9.20 -9.93 -10.56 -13.18 -10.50 -3.01 -4.98 -12.49 -21.46 -21.90 -18.85 -21.77 -24.07 -20.47 -12.53 -8.62 -7.23
-5.89 -6.32 -8.52 -9.94 -11.31 -10.54 -13.25 -13.09 -13.66 -15.26 -15.90 -13.47 -14.66 -17.57 -17.57 -15.61 -14.34 -14.64 -14.06 -14.27 -12.45 -11.00 -10.90 -11.67 -12.53 -11.70 -11.51 -10.86 -11.91 -9.33 -8.35 -2.33 -7.71 -11.26 -15.66 -17.49 -18.58 -18.94 -19.22 -15.73 -13.53 -7.72 -4.24
MSLP
1023.15 1023.88 1024.60 1025.30 1025.95 1026.68 1027.45 1028.23 1028.87 1029.54 1030.03 1030.53 1031.01 1031.51 1031.96 1032.37 1032.73 1033.16 1033.59 1033.95 1034.27 1034.37 1034.65 1034.56 1034.56 1035.00 1035.31 1035.56 1035.54 1035.68 1035.88 1036.08 1035.94 1034.52 1034.12 1033.57 1033.17 1032.80 1031.99 1031.74 1031.26 1030.61 1029.76
1022.85 1023.57 1024.32 1025.02 1025.72 1026.54 1027.33 1028.08 1028.78 1029.23 1029.84 1030.30 1031.04 1031.51 1031.99 1032.39 1032.67 1032.92 1033.24 1033.80 1034.31 1034.44 1034.33 1034.31 1034.55 1034.81 1035.29 1035.24 1035.53 1035.78 1035.80 1035.88 1036.04 1035.18 1034.12 1033.62 1033.13 1032.59 1032.03 1031.54 1030.71 1030.06 1029.32
1022.71 1023.41 1024.27 1024.97 1025.59 1026.23 1026.93 1027.72 1028.39 1028.96 1029.65 1030.38 1030.99 1031.41 1031.86 1032.22 1032.53 1032.85 1032.99 1033.47 1034.00 1034.07 1034.03 1034.15 1034.50 1034.66 1034.83 1035.13 1035.33 1035.50 1035.55 1035.54 1035.52 1035.40 1034.30 1033.67 1032.79 1032.33 1031.53 1031.01 1030.21 1029.36 1028.62
1022.52 1023.45 1024.08 1024.64 1025.25 1025.76 1026.44 1027.23 1027.90 1028.57 1029.35 1030.01 1030.55 1031.00 1031.54 1032.07 1032.33 1032.48 1032.66 1033.15 1033.74 1033.73 1033.86 1034.12 1034.09 1034.25 1034.40 1034.71 1034.80 1034.92 1035.05 1035.09 1035.00 1034.87 1034.09 1033.20 1032.76 1031.80 1031.50 1030.75 1029.38 1029.08 1027.95
1022.09 1022.81 1023.65 1024.26 1025.02 1025.80 1026.41 1027.02 1027.82 1028.54 1029.11 1029.68 1030.22 1030.85 1031.34 1031.66 1031.62 1032.11 1032.32 1032.84 1033.45 1033.50 1033.63 1033.61 1033.66 1033.78 1033.77 1033.95 1034.01 1034.14 1034.34 1034.41 1034.39 1034.14 1033.60 1032.99 1032.24 1031.52 1031.27 1030.59 1029.93 1028.81 1027.62
1021.36 1022.20 1023.03 1024.08 1024.84 1025.42 1026.41 1026.93 1027.63 1028.42 1029.02 1029.63 1030.08 1030.57 1031.16 1031.05 1031.20 1031.26 1031.69 1032.68 1033.10 1033.22 1033.33 1033.40 1033.33 1033.52 1033.52 1033.24 1033.15 1033.11 1033.32 1033.42 1033.49 1033.34 1032.97 1032.47 1031.93 1031.81 1031.18 1030.56 1029.74 1029.08 1027.30
1020.74 1021.92 1022.75 1023.58 1024.61 1025.22 1026.08 1026.66 1027.26 1027.92 1028.67 1029.38 1029.95 1030.40 1030.78 1030.85 1030.84 1030.63 1030.96 1032.24 1032.58 1032.85 1032.93 1032.91 1032.83 1032.80 1033.09 1033.16 1033.01 1032.88 1032.76 1032.66 1032.40 1032.26 1032.17 1032.20 1031.71 1031.45 1030.92 1030.19 1029.74 1029.23 1028.24
1020.50 1021.47 1022.45 1023.25 1024.18 1024.91 1025.58 1026.26 1026.90 1027.42 1028.21 1028.96 1029.58 1030.03 1030.61 1030.53 1030.33 1029.95 1030.65 1031.60 1032.14 1032.26 1032.46 1032.61 1032.52 1032.45 1032.59 1032.79 1032.80 1032.72 1032.53 1032.37 1032.21 1032.09 1031.94 1031.61 1031.37 1030.84 1030.68 1030.20 1029.79 1029.18 1028.27
1019.70 1020.62 1021.57 1022.43 1023.45 1024.39 1024.96 1025.69 1026.40 1027.04 1027.91 1028.35 1028.94 1029.60 1029.94 1030.12 1029.73 1029.76 1030.32 1031.16 1031.46 1031.62 1031.80 1031.91 1031.98 1031.93 1031.89 1031.81 1031.76 1031.71 1031.58 1031.43 1031.33 1031.19 1030.97 1030.79 1030.74 1030.48 1030.36 1029.88 1029.72 1029.24 1027.68
1018.48 1019.48 1020.58 1021.72 1022.72 1023.51 1024.07 1024.96 1025.77 1026.38 1026.98 1027.97 1028.59 1028.90 1029.32 1029.84 1029.38 1029.39 1029.78 1030.58 1030.85 1031.09 1031.19 1031.33 1031.31 1031.34 1031.29 1031.16 1030.94 1030.88 1030.86 1030.83 1030.86 1031.41 1031.34 1031.06 1030.73 1030.51 1030.12 1029.91 1029.37 1028.99 1028.33
1017.79 1019.05 1020.33 1021.16 1021.87 1022.64 1023.73 1024.66 1025.37 1026.14 1026.86 1027.52 1028.10 1028.59 1028.92 1029.31 1029.59 1029.01 1029.26 1029.86 1030.26 1030.46 1030.51 1030.51 1030.66 1030.53 1030.30 1030.06 1029.75 1029.73 1029.72 1030.07 1030.47 1030.86 1030.86 1030.76 1030.32 1030.08 1029.74 1029.42 1029.01 1028.66 1028.05
1017.85 1018.86 1019.97 1020.61 1021.38 1022.20 1023.08 1024.13 1024.97 1025.79 1026.68 1027.39 1028.01 1028.44 1028.62 1029.00 1029.16 1029.03 1028.93 1028.88 1029.28 1029.64 1029.79 1029.82 1030.01 1029.86 1029.58 1029.26 1028.88 1028.64 1028.45 1028.89 1030.59 1030.60 1030.63 1030.32 1029.95 1029.57 1029.11 1028.88 1028.50 1028.05 1027.51
1018.07 1018.93 1019.85 1020.46 1021.10 1021.87 1022.84 1023.97 1025.06 1025.72 1026.37 1026.95 1027.58 1027.95 1028.30 1028.82 1029.15 1028.61 1028.51 1028.37 1028.34 1028.48 1028.75 1028.97 1028.89 1028.71 1028.58 1028.39 1028.17 1028.38 1028.71 1029.64 1029.97 1030.52 1030.37 1029.90 1029.46 1029.04 1028.75 1028.60 1028.09 1027.50 1026.86
1018.46 1019.29 1020.14 1020.68 1021.53 1022.24 1022.82 1023.62 1024.54 1025.28 1025.88 1026.47 1027.07 1027.52 1028.03 1028.39 1028.54 1028.93 1028.81 1028.71 1028.31 1027.84 1027.98 1028.41 1028.11 1027.88 1027.78 1027.71 1028.33 1028.20 1028.60 1029.11 1029.53 1029.84 1029.83 1029.42 1029.02 1028.91 1028.71 1028.46 1027.96 1027.24 1026.56
1018.85 1019.76 1020.51 1021.07 1021.82 1022.71 1023.18 1023.60 1024.10 1024.62 1024.97 1025.66 1026.29 1026.86 1027.52 1027.72 1027.70 1027.53 1027.88 1028.19 1028.27 1028.24 1028.40 1028.77 1028.50 1028.40 1028.01 1027.84 1028.00 1028.09 1028.29 1028.62 1028.94 1029.17 1029.35 1029.33 1029.08 1028.86 1028.55 1028.24 1027.88 1027.34 1026.87
1019.49 1020.25 1020.86 1021.40 1022.09 1022.77 1023.46 1023.99 1023.93 1024.27 1024.51 1024.86 1025.38 1026.24 1026.92 1026.64 1026.58 1026.56 1026.55 1026.49 1026.48 1026.47 1026.94 1027.96 1027.94 1027.83 1027.56 1027.36 1027.29 1027.36 1027.61 1027.84 1028.25 1028.61 1028.86 1029.00 1028.91 1028.82 1028.58 1028.23 1027.92 1027.48 1026.69
1019.69 1020.50 1021.19 1021.82 1022.45 1023.16 1023.76 1024.11 1024.61 1024.45 1024.06 1024.43 1024.60 1024.82 1025.39 1026.06 1025.95 1025.84 1025.98 1025.90 1025.95 1026.15 1027.01 1027.82 1027.92 1027.75 1027.46 1027.17 1027.07 1027.23 1027.32 1027.64 1027.89 1028.13 1028.53 1028.70 1028.76 1028.80 1028.77 1028.38 1027.87 1027.42 1026.59
1020.17 1020.66 1021.23 1021.90 1022.60 1023.35 1023.99 1024.46 1024.80 1025.12 1025.46 1025.66 1025.79 1025.87 1026.06 1026.17 1026.17 1026.15 1026.09 1026.14 1027.45 1027.88 1028.44 1028.95 1028.80 1028.38 1027.89 1027.46 1027.28 1027.21 1027.38 1027.60 1027.75 1027.97 1028.30 1028.55 1028.77 1028.96 1028.82 1028.42 1027.91 1027.44 1026.60
1020.66 1021.24 1021.80 1022.37 1022.91 1023.46 1024.24 1024.89 1025.34 1025.78 1026.18 1026.50 1026.76 1026.84 1027.62 1027.09 1027.12 1027.09 1027.20 1028.18 1029.13 1029.47 1029.40 1029.30 1028.85 1028.39 1027.94 1027.63 1027.47 1027.44 1027.47 1027.54 1027.66 1027.88 1028.19 1028.43 1028.61 1028.89 1028.76 1028.26 1027.77 1027.21 1026.45
1021.48 1021.74 1022.17 1022.79 1023.51 1024.09 1024.66 1025.34 1025.96 1026.34 1026.82 1027.28 1027.67 1028.09 1028.44 1028.60 1028.50 1028.77 1028.77 1029.09 1029.32 1029.39 1029.25 1029.11 1028.78 1028.42 1027.92 1027.67 1027.50 1027.40 1027.36 1027.40 1027.53 1027.70 1027.90 1028.11 1028.28 1028.50 1028.43 1027.94 1027.45 1026.97 1026.14
1022.18 1022.54 1022.89 1023.59 1024.05 1024.50 1025.07 1025.73 1026.33 1026.94 1027.44 1027.85 1028.27 1028.48 1028.57 1028.98 1029.34 1029.49 1029.58 1029.51 1029.49 1029.25 1028.97 1028.79 1028.49 1028.15 1027.82 1027.59 1027.40 1027.28 1027.21 1027.13 1027.13 1027.22 1027.50 1027.72 1027.98 1028.23 1027.89 1027.55 1027.10 1026.49 1025.87
1023.26 1023.86 1024.18 1024.60 1024.90 1025.33 1025.87 1026.43 1027.11 1027.49 1027.83 1028.18 1028.58 1028.64 1028.46 1028.90 1029.25 1029.51 1029.56 1029.52 1029.41 1029.14 1028.72 1028.38 1028.15 1027.79 1027.61 1027.22 1027.03 1026.84 1026.74 1026.65 1026.54 1026.67 1027.00 1027.29 1027.51 1027.61 1027.45 1027.15 1026.77 1026.12 1025.43
1023.81 1024.38 1024.94 1025.52 1025.66 1026.09 1026.66 1027.19 1027.62 1027.90 1028.21 1028.53 1028.52 1028.60 1028.85 1029.04 1029.14 1029.15 1029.16 1029.12 1028.87 1028.53 1028.03 1028.05 1027.60 1027.23 1026.97 1026.69 1026.42 1026.32 1026.19 1026.03 1025.85 1026.12 1026.47 1026.80 1027.01 1027.09 1027.04 1026.83 1026.38 1025.72 1024.99
1024.42 1024.75 1025.10 1025.52 1025.83 1026.41 1026.93 1027.43 1027.71 1027.90 1028.24 1028.42 1028.63 1028.80 1028.79 1028.67 1028.64 1028.63 1028.58 1028.31 1028.03 1027.72 1027.52 1027.30 1026.94 1026.62 1026.40 1026.26 1025.97 1025.76 1025.67 1025.58 1025.56 1025.66 1025.90 1026.38 1026.34 1026.34 1026.30 1026.13 1025.77 1025.18 1024.51
1024.93 1025.29 1025.73 1026.29 1026.73 1027.19 1027.53 1027.83 1028.16 1028.31 1028.27 1028.30 1028.34 1028.35 1028.20 1028.19 1028.14 1028.08 1027.97 1027.63 1027.35 1027.14 1026.78 1026.45 1026.24 1025.96 1025.76 1025.62 1025.43 1025.15 1025.00 1024.83 1024.79 1024.90 1025.30 1025.58 1025.56 1025.50 1025.48 1025.32 1024.98 1024.35 1023.74
1025.42 1025.66 1026.03 1026.40 1026.94 1027.20 1027.40 1027.51 1027.81 1027.95 1028.20 1027.85 1027.91 1027.81 1027.71 1027.68 1027.54 1027.41 1027.25 1027.01 1026.68 1026.30 1025.97 1025.80 1025.57 1025.30 1025.17 1024.95 1024.71 1024.41 1024.18 1023.99 1023.95 1023.93 1024.14 1024.49 1024.64 1024.51 1024.53 1024.38 1023.99 1023.54 1022.78
Wind_Speed
12 11 12 11 11 11 10 9 10 8 9 9 8 8 7 7 6 6 5 6 5 5 4 4 4 3 2 2 2 1 1 1 4 5 2 6 7 12 11 10 12 11 10
11 11 12 11 11 11 10 9 9 10 8 9 8 7 6 6 6 7 7 5 5 5 4 4 3 2 2 2 1 3 3 2 2 10 8 6 10 11 12 13 10 10 11
9 11 10 11 11 11 11 11 10 10 8 7 7 7 7 7 7 6 6 6 5 5 4 4 4 4 2 2 3 3 3 4 3 5 9 7 9 9 12 11 11 12 10
11 10 12 12 12 12 12 11 11 10 10 9 7 7 7 7 6 6 6 5 5 4 4 4 5 4 5 4 4 4 4 4 4 6 8 10 9 10 8 11 13 10 13
13 12 12 11 10 9 10 10 9 9 9 8 8 6 7 7 6 7 6 6 6 5 5 5 4 5 8 7 4 4 4 4 4 6 8 9 9 9 11 11 12 13 13
15 14 11 10 10 11 10 10 10 9 8 8 8 8 7 6 13 14 8 6 5 5 5 5 4 5 7 11 13 13 9 4 4 2 8 9 11 10 10 11 11 13 16
13 11 11 12 11 10 10 10 11 11 8 9 8 8 8 6 16 15 14 6 5 5 5 4 4 3 5 5 10 14 13 14 15 11 10 8 12 11 11 13 14 13 13
12 12 11 11 11 9 10 11 10 9 11 9 9 8 7 7 17 15 15 6 5 6 6 5 5 5 6 6 7 8 9 9 9 8 9 9 9 9 11 11 12 12 12
14 14 13 13 12 12 13 12 9 9 8 9 7 8 9 7 17 16 14 5 7 7 6 6 6 7 11 15 9 7 9 8 9 15 17 16 17 20 16 8 7 9 12
15 15 14 14 14 14 14 12 9 9 9 7 8 8 9 8 16 16 14 4 5 6 5 7 12 12 16 16 10 8 9 7 6 2 3 7 9 10 14 8 7 8 9
11 11 12 14 14 12 9 7 8 7 5 7 8 6 8 7 8 17 18 4 6 4 5 6 6 16 18 18 18 8 9 7 3 2 3 3 4 5 5 6 8 8 9
11 12 12 12 9 9 11 6 6 7 7 6 5 4 4 4 9 14 17 19 12 6 7 7 6 16 17 18 16 19 20 8 2 1 1 4 5 5 5 7 10 10 10
10 10 9 7 7 8 9 8 4 6 7 7 7 7 2 3 3 14 17 18 19 13 7 9 16 18 20 17 19 11 4 2 1 0 3 5 5 6 8 8 10 10 12
8 7 6 8 6 5 4 5 6 7 7 5 5 5 2 3 4 4 5 6 13 11 12 6 8 15 16 14 4 9 2 2 3 3 4 5 5 5 6 6 7 9 9
6 5 4 4 5 5 3 4 4 1 5 4 4 4 4 4 5 9 7 4 4 8 7 1 2 5 7 6 4 5 4 4 4 3 2 3 5 5 6 5 6 8 8
6 5 5 5 4 4 5 3 5 6 9 9 8 7 3 9 8 8 10 12 14 16 8 9 9 8 9 8 8 7 4 4 5 4 3 3 4 5 6 6 6 7 8
6 5 4 4 4 5 3 5 4 3 5 8 9 10 12 8 9 8 10 12 15 14 6 5 6 3 5 6 6 5 3 4 4 3 2 3 4 4 5 6 6 7 8
4 6 5 4 4 4 4 3 3 4 4 1 7 6 6 6 6 9 11 11 5 5 1 1 3 5 6 7 5 2 2 2 3 2 2 2 3 2 4 6 6 7 8
5 4 4 4 4 5 4 4 3 4 3 2 2 4 7 7 7 7 8 2 1 2 2 3 3 4 4 3 3 3 3 3 2 2 2 2 3 2 3 5 6 9 10
4 7 5 5 5 5 5 5 4 4 3 2 2 1 1 3 3 2 1 1 2 3 3 3 4 5 4 3 2 2 2 2 3 3 3 3 3 3 4 5 6 6 7
4 4 7 5 4 4 4 4 3 3 3 3 2 2 6 3 3 2 2 3 3 4 4 4 4 4 3 3 3 2 3 4 4 3 3 3 2 3 4 5 6 6 7
4 4 4 4 3 4 4 3 3 3 3 3 2 2 4 2 1 2 3 4 4 4 4 4 4 4 3 3 4 4 4 5 4 3 3 3 3 3 3 4 5 6 6
5 5 4 3 4 5 4 3 3 3 3 2 2 1 1 2 3 3 4 4 4 4 4 3 4 4 4 4 3 4 5 5 5 3 4 3 3 4 3 4 4 6 5
4 4 4 4 3 3 3 3 2 3 3 3 2 3 3 3 3 4 4 4 4 4 4 4 4 6 4 5 3 3 5 5 3 4 6 4 5 4 3 4 5 7 7
4 3 3 3 2 2 2 2 2 3 3 2 3 3 3 3 3 5 5 4 4 4 5 5 4 6 9 9 8 7 7 10 8 6 4 5 6 6 4 4 6 7 8
3 3 3 3 2 2 2 3 3 3 3 3 3 3 3 4 4 4 5 5 5 5 6 4 6 9 9 8 9 10 9 11 9 10 6 5 5 5 4 7 8 7 8
Wind_Direction
166 162 158 157 154 153 155 153 154 148 150 148 151 147 147 146 147 137 138 143 138 139 147 141 121 133 145 102 92 167 224 178 267 287 285 317 311 317 319 312 307 305 307
167 161 164 158 154 153 155 157 158 158 156 153 154 153 149 150 153 154 156 149 161 176 169 148 164 157 180 170 166 220 222 239 252 289 302 314 310 314 305 304 305 302 301
159 160 159 159 159 163 161 162 163 156 156 154 156 157 162 167 161 166 157 163 185 191 183 183 200 197 223 206 217 223 237 258 234 271 289 300 302 309 308 305 307 309 303
161 164 167 168 173 171 165 166 164 161 161 165 168 163 166 170 168 169 163 168 198 205 208 212 215 216 225 231 223 231 242 235 237 258 280 298 301 306 298 314 316 313 310
171 172 179 172 168 162 164 163 156 162 170 168 160 165 176 179 175 178 176 177 201 210 224 230 229 233 246 236 217 222 232 234 247 271 287 294 298 317 319 317 306 308 308
179 181 168 169 167 168 169 163 162 169 165 164 176 177 184 192 197 194 175 189 201 214 229 236 240 247 260 264 271 272 256 215 215 225 284 286 306 312 310 307 314 315 315
171 171 170 171 176 173 168 168 176 177 166 183 184 187 200 191 207 201 201 196 204 216 220 229 240 227 231 236 261 271 276 276 273 278 290 294 299 306 307 316 313 308 302
174 173 170 170 177 172 172 184 178 170 182 187 192 193 202 209 215 206 217 190 206 217 219 222 232 239 231 242 245 246 246 246 253 259 264 281 280 302 310 309 305 304 295
180 177 175 173 179 180 184 185 184 175 181 190 189 189 200 216 215 215 220 180 213 223 218 220 228 241 246 259 259 251 258 255 249 268 283 301 305 310 310 311 304 309 307
180 178 174 181 187 187 192 187 179 187 194 181 197 201 206 217 216 221 224 180 215 225 225 240 239 248 255 257 252 247 257 248 239 254 285 296 301 300 309 299 294 297 305
162 168 182 188 189 189 177 170 174 175 157 185 203 203 209 202 212 228 233 199 223 218 231 241 240 254 262 263 263 252 252 243 238 185 268 266 292 290 284 284 298 295 291
153 161 174 177 176 168 168 153 160 165 185 194 200 228 216 185 203 233 237 241 232 214 232 239 237 251 259 262 265 264 273 276 135 12 325 301 293 290 291 300 297 289 280
152 166 166 153 157 160 161 158 138 164 189 206 208 227 198 164 201 235 236 245 252 256 252 236 248 256 258 264 272 248 246 170 173 333 270 275 277 290 300 301 294 293 289
149 149 150 159 144 134 126 150 169 185 199 202 197 215 151 182 211 218 235 257 265 265 265 290 279 272 260 264 243 263 172 212 229 228 250 274 293 298 296 296 301 308 306
118 126 130 123 143 133 109 156 158 149 173 171 198 173 182 221 226 226 219 221 224 246 260 310 295 262 261 253 233 212 208 209 225 219 235 265 285 297 295 309 301 303 294
130 144 158 150 141 141 139 89 192 184 206 213 213 189 227 233 237 234 246 255 259 260 244 241 248 241 243 247 243 239 210 204 222 211 219 248 281 294 300 306 298 293 297
137 140 132 131 141 146 132 152 151 333 216 206 219 227 208 213 244 276 293 293 296 301 296 299 318 320 255 252 244 227 219 214 190 191 224 249 268 280 299 295 296 295 297
121 136 146 143 138 134 141 146 141 159 162 87 41 57 35 16 343 319 309 323 13 358 13 289 299 307 302 292 273 257 237 201 194 189 227 231 259 239 287 286 288 289 296
124 126 130 126 126 131 130 122 122 121 130 127 22 47 24 15 352 338 336 100 243 290 270 286 268 272 273 248 239 240 220 220 205 209 225 230 258 199 260 268 280 288 296
87 117 110 120 122 118 122 127 124 124 116 119 110 188 332 49 23 330 331 285 305 265 253 248 266 275 261 251 257 241 237 235 239 235 238 237 246 211 259 272 279 287 294
113 110 116 103 115 121 121 126 118 119 135 144 177 214 242 139 169 205 254 275 263 274 279 271 272 257 251 255 242 225 232 248 243 239 240 241 238 252 232 262 281 278 280
80 78 67 93 101 94 94 101 117 125 134 148 205 257 309 62 176 246 252 255 259 254 255 256 265 251 236 224 226 236 237 249 245 232 239 242 224 237 243 253 268 279 283
99 104 100 94 101 113 110 129 130 141 168 197 214 250 263 254 255 255 257 263 260 264 266 257 257 269 260 239 224 235 247 254 250 209 232 229 226 232 223 245 261 278 276
119 127 131 126 128 130 134 158 175 186 193 194 213 238 245 252 253 259 260 261 262 264 258 259 252 249 260 258 240 222 238 254 236 232 219 209 233 235 220 235 251 260 273
79 83 86 110 123 148 152 173 205 220 222 231 246 240 246 249 259 257 258 257 260 264 266 260 250 251 259 260 261 249 238 263 258 212 202 202 225 222 217 227 256 266 267
104 112 123 130 152 176 195 210 223 226 234 237 242 243 244 253 252 255 260 261 261 258 259 256 257 261 264 263 259 259 253 259 244 228 208 204 216 231 215 232 246 258 264